Weather History for Columbus AFB, MS

Change the Weather History Date:

Monday, April 16, 2012

  Actual Average Record
Temperature  
Mean Temperature 70 °F -  
Max Temperature 78 °F 71 °F 86 °F (2006)
Min Temperature 63 °F 50 °F 34 °F (2014)
Cooling Degree Days 5    
Growing Degree Days 20 (Base 50)    
Moisture  
Dew Point 62 °F    
Average Humidity 81    
Maximum Humidity 94    
Minimum Humidity 58    
Precipitation  
Precipitation 0.08 in - - ()
Sea Level Pressure  
Sea Level Pressure 30.13 in    
Wind  
Wind Speed 10 mph (West)    
Max Wind Speed 17 mph    
Max Gust Speed 22 mph    
Visibility 10 miles    
Events Rain    
Averages and records for this station are not official NWS values.
T = Trace of Precipitation, MM = Missing Value Source: NWS Daily Summary

Daily Weather History Graph

Daily Weather History Graph

Search for Another Location

Airport:

Trip Planner

Search our weather history database for the weather conditions in past years. The results will help you decide how hot, cold, wet, or windy it might be!

Date:

Astronomy

Apr. 16, 2012 Rise Set
Actual Time 6:21 AM CDT 7:25 PM CDT
Civil Twilight 5:55 AM CDT 7:51 PM CDT
Nautical Twilight 5:25 AM CDT 8:22 PM CDT
Astronomical Twilight 4:53 AM CDT 8:53 PM CDT
Moon 3:37 AM CDT (4/16) 3:31 PM CDT (4/16)
Length of Visible Light 13h 55m
Length of Day
13h 04m
Waning Crescent, 19% of the Moon is Illuminated
Apr 16
Waning Crescent
Apr 21
New
Apr 29
First Quarter
May 5
Full
May 12
Last Quarter

Hourly Weather History & Observations

Time (CDT) Temp. Dew Point Humidity Pressure Visibility Wind Dir Wind Speed Gust Speed Precip Events Conditions
12:55 AM 71.8 °F 63.7 °F 76% 30.01 in 10.0 mi South 11.5 mph - N/A   Clear
1:14 AM 71.6 °F 64.4 °F 78% 30.02 in 10.0 mi South 16.1 mph 21.9 mph N/A   Mostly Cloudy
1:55 AM 72.0 °F 64.4 °F 77% 30.04 in 10.0 mi SSW 12.7 mph - N/A   Overcast
1:56 AM 71.6 °F 64.4 °F 78% 30.04 in 10.0 mi SSW 12.7 mph - N/A   Overcast
2:05 AM 71.6 °F 64.4 °F 78% 30.04 in 10.0 mi SSW 11.5 mph - N/A   Mostly Cloudy
2:08 AM 71.6 °F 64.4 °F 78% 30.03 in 10.0 mi South 13.8 mph - N/A   Mostly Cloudy
2:17 AM 71.6 °F 64.4 °F 78% 30.04 in 10.0 mi SSW 10.4 mph - N/A   Scattered Clouds
2:55 AM 70.9 °F 64.4 °F 80% 30.02 in 10.0 mi South 15.0 mph 19.6 mph N/A   Clear
3:55 AM 70.0 °F 64.6 °F 83% 30.02 in 10.0 mi South 10.4 mph - N/A   Clear
4:55 AM 69.3 °F 64.8 °F 86% 30.05 in 10.0 mi SW 6.9 mph - N/A   Clear
5:55 AM 68.5 °F 65.3 °F 89% 30.08 in 10.0 mi South 5.8 mph - N/A   Partly Cloudy
6:50 AM 68.0 °F 66.2 °F 94% 30.11 in 10.0 mi WNW 12.7 mph - N/A   Partly Cloudy
6:55 AM 68.2 °F 63.9 °F 86% 30.12 in 10.0 mi WNW 15.0 mph 19.6 mph N/A   Scattered Clouds
7:03 AM 68.0 °F 62.6 °F 83% 30.12 in 10.0 mi NW 12.7 mph 21.9 mph N/A   Mostly Cloudy
7:04 AM 68.0 °F 60.8 °F 78% 30.12 in 10.0 mi NW 12.7 mph 21.9 mph N/A   Mostly Cloudy
7:11 AM 66.2 °F 60.8 °F 83% 30.12 in 9.0 mi WNW 17.3 mph 21.9 mph N/A Rain Light Rain
7:12 AM 66.2 °F 60.8 °F 83% 30.12 in 8.0 mi WNW 15.0 mph - N/A Rain Light Rain
7:13 AM 66.2 °F 60.8 °F 83% 30.13 in 8.0 mi WNW 13.8 mph - N/A Rain Light Rain
7:14 AM 66.2 °F 60.8 °F 83% 30.13 in 8.0 mi WNW 13.8 mph - N/A Rain Light Rain
7:29 AM 64.4 °F 60.8 °F 88% 30.13 in 10.0 mi NW 8.1 mph - N/A Rain Light Rain
7:32 AM 64.4 °F 60.8 °F 88% 30.13 in 10.0 mi NW 11.5 mph - N/A   Mostly Cloudy
7:33 AM 64.4 °F 60.8 °F 88% 30.13 in 10.0 mi NW 11.5 mph - N/A   Mostly Cloudy
7:34 AM 64.4 °F 60.8 °F 88% 30.14 in 10.0 mi NW 12.7 mph - N/A   Mostly Cloudy
7:40 AM 64.4 °F 60.8 °F 88% 30.14 in 10.0 mi NW 11.5 mph - N/A   Overcast
7:41 AM 64.4 °F 60.8 °F 88% 30.14 in 10.0 mi NW 11.5 mph - N/A   Overcast
7:55 AM 63.7 °F 61.7 °F 93% 30.14 in 10.0 mi NW 9.2 mph - 0.01 in   Mostly Cloudy
8:07 AM 64.4 °F 62.6 °F 94% 30.15 in 10.0 mi NNW 6.9 mph - N/A   Mostly Cloudy
8:11 AM 64.4 °F 62.6 °F 94% 30.15 in 10.0 mi North 8.1 mph - N/A   Mostly Cloudy
8:16 AM 64.4 °F 60.8 °F 88% 30.15 in 10.0 mi North 9.2 mph - N/A   Mostly Cloudy
8:36 AM 64.4 °F 60.8 °F 88% 30.15 in 10.0 mi North 5.8 mph - N/A   Mostly Cloudy
8:55 AM 66.7 °F 60.6 °F 81% 30.14 in 10.0 mi Calm Calm - N/A   Scattered Clouds
9:50 AM 71.6 °F 60.8 °F 69% 30.17 in 10.0 mi West 5.8 mph - N/A   Mostly Cloudy
9:55 AM 71.1 °F 60.6 °F 69% 30.17 in 10.0 mi West 5.8 mph - N/A   Mostly Cloudy
10:20 AM 69.8 °F 60.8 °F 73% 30.19 in 6.0 mi West 11.5 mph - N/A Rain Heavy Rain
10:40 AM 66.2 °F 60.8 °F 83% 30.17 in 10.0 mi SW 4.6 mph - N/A Rain Light Rain
10:46 AM 66.2 °F 60.8 °F 83% 30.17 in 10.0 mi South 4.6 mph - N/A   Mostly Cloudy
10:48 AM 66.2 °F 62.6 °F 88% 30.17 in 10.0 mi South 5.8 mph - N/A Rain Light Rain
10:52 AM 66.2 °F 62.6 °F 88% 30.17 in 10.0 mi SSE 6.9 mph - N/A   Mostly Cloudy
10:55 AM 66.6 °F 62.2 °F 86% 30.17 in 10.0 mi SSE 5.8 mph - 0.07 in   Mostly Cloudy
11:55 AM 70.9 °F 63.7 °F 78% 30.14 in 10.0 mi SSW 4.6 mph - N/A   Scattered Clouds
12:55 PM 74.1 °F 65.1 °F 73% 30.12 in 10.0 mi WNW 8.1 mph - N/A   Scattered Clouds
1:55 PM 77.0 °F 62.8 °F 61% 30.12 in 10.0 mi NW 10.4 mph - N/A   Scattered Clouds
2:55 PM 76.8 °F 61.0 °F 58% 30.12 in 10.0 mi WNW 10.4 mph - N/A   Partly Cloudy
3:55 PM 74.1 °F 59.9 °F 61% 30.13 in 10.0 mi WNW 8.1 mph - N/A   Partly Cloudy
4:55 PM 72.5 °F 60.4 °F 66% 30.13 in 10.0 mi NW 8.1 mph - N/A   Mostly Cloudy
5:55 PM 72.1 °F 61.0 °F 68% 30.14 in 10.0 mi West 4.6 mph - N/A   Mostly Cloudy
6:36 PM 69.8 °F 62.6 °F 78% 30.15 in 10.0 mi West 6.9 mph - N/A   Mostly Cloudy
6:45 PM 69.8 °F 62.6 °F 78% 30.15 in 10.0 mi West 5.8 mph - N/A   Scattered Clouds
6:55 PM 69.8 °F 61.7 °F 75% 30.15 in 10.0 mi WNW 5.8 mph - N/A   Partly Cloudy
7:51 PM 68.0 °F 60.8 °F 78% 30.17 in 10.0 mi NW 4.6 mph - N/A Rain Light Rain
7:55 PM 68.0 °F 61.2 °F 79% 30.17 in 10.0 mi NNW 3.5 mph - 0.00 in   Light Drizzle
8:01 PM 68.0 °F 60.8 °F 78% 30.17 in 10.0 mi NNW 4.6 mph - N/A   Mostly Cloudy
8:55 PM 66.7 °F 60.3 °F 80% 30.19 in 10.0 mi North 3.5 mph - 0.00 in   Scattered Clouds
9:55 PM 65.7 °F 59.7 °F 81% 30.19 in 10.0 mi North 4.6 mph - N/A   Mostly Cloudy
10:55 PM 65.5 °F 57.7 °F 76% 30.18 in 10.0 mi ENE 3.5 mph - N/A   Overcast
11:55 PM 64.0 °F 58.5 °F 82% 30.18 in 10.0 mi WNW 4.6 mph - N/A   Overcast